Weather reports worldwide

Advertisment
Aachen-Orsbach, Germany (10505): temperature & dewpoint: 13.01.2021 07:00:00 - 19.01.2021 07:00:00 (CET)Aachen-Orsbach, Germany (10505): temperature 5cm & temperature -5cm: 13.01.2021 07:00:00 - 19.01.2021 07:00:00 (CET)Aachen-Orsbach, Germany (10505): temperature -20cm & temperature -100cm: 13.01.2021 07:00:00 - 19.01.2021 07:00:00 (CET)Aachen-Orsbach, Germany (10505): wind speed & gusts: 13.01.2021 07:00:00 - 19.01.2021 07:00:00 (CET)Aachen-Orsbach, Germany (10505): wind direction: 13.01.2021 07:00:00 - 19.01.2021 07:00:00 (CET)Aachen-Orsbach, Germany (10505): reduced air pressure: 13.01.2021 07:00:00 - 19.01.2021 07:00:00 (CET)Aachen-Orsbach, Germany (10505): visibility: 13.01.2021 07:00:00 - 19.01.2021 07:00:00 (CET)Aachen-Orsbach, Germany (10505): sunshine duration: 13.01.2021 07:00:00 - 19.01.2021 07:00:00 (CET)Aachen-Orsbach, Germany (10505): precipitation: 13.01.2021 07:00:00 - 19.01.2021 07:00:00 (CET)
Date & Time tt [°C] td [°C] tt 5cm [°C] tt -5cm [°C] tt -20cm [°C] tt -100cm [°C] ff [km/h] ff [kn] fx [km/h] fx [kn] dd ppp [hPa] vv [km] sd [min] rr [mm]
19.01.2021 07:00:00 - - - - - - - - - - - - - - -
19.01.2021 06:00:00 4,3 1,6 3,6 2,4 2,8 6,0 42 23 60 33 SSW 1012,8 12 0 0,0
19.01.2021 05:00:00 3,7 0,7 3,0 2,2 2,9 6,0 39 21 55 30 SSW 1014,1 35 0 0,0
19.01.2021 04:00:00 3,2 0,6 2,6 2,2 2,9 6,0 36 19 50 27 SSW 1015,7 39 0 0,0
19.01.2021 03:00:00 2,9 0,0 1,9 2,4 2,9 6,0 34 18 49 26 SSW 1017,5 39 0 0,0
19.01.2021 02:00:00 3,5 0,5 2,8 2,7 2,9 6,0 34 18 52 28 SW 1018,1 46 0 0,0
19.01.2021 01:00:00 3,6 1,3 2,7 2,8 2,9 6,0 35 19 49 27 SW 1019,0 40 0 0,0
19.01.2021 00:00:00 3,6 1,7 2,8 2,9 2,9 6,0 30 16 47 25 SW 1019,7 34 0 0,0
18.01.2021 23:00:00 3,7 2,2 2,9 2,9 2,9 6,0 30 16 44 24 SW 1020,3 18 0 0,1
18.01.2021 22:00:00 3,8 2,5 3,2 2,9 2,9 6,0 22 12 43 23 WSW 1021,1 11 0 0,0
18.01.2021 21:00:00 3,7 2,1 2,8 3,0 2,9 6,0 26 14 40 22 SW 1021,4 39 0 0,0
18.01.2021 20:00:00 3,9 2,2 3,2 3,0 2,8 6,0 27 15 43 23 WSW 1021,6 31 0 0,0
18.01.2021 19:00:00 3,9 2,2 3,2 3,1 2,8 6,0 27 15 43 23 SW 1021,5 24 0 0,0
18.01.2021 18:00:00 3,9 2,3 3,2 3,2 2,8 6,0 24 13 38 20 SW 1021,6 25 0 0,1
18.01.2021 17:00:00 4,1 1,9 3,5 3,4 2,7 6,0 24 13 37 20 SW 1021,9 9 0 0,0
18.01.2021 16:00:00 4,3 1,9 3,8 3,7 2,6 6,0 23 12 37 20 WSW 1022,3 32 0 0,0
18.01.2021 15:00:00 4,6 1,9 4,3 4,0 2,5 6,0 26 14 44 24 WSW 1022,4 32 4 0,0
18.01.2021 14:00:00 5,0 1,9 5,3 4,0 2,3 6,0 29 16 44 24 WSW 1022,7 36 17 0,0
18.01.2021 13:00:00 4,8 2,4 5,9 3,6 2,3 6,0 28 15 43 23 SW 1023,4 32 18 0,0
18.01.2021 12:00:00 4,3 2,2 5,3 2,9 2,2 6,0 23 12 34 18 WSW 1024,3 32 45 0,0
18.01.2021 11:00:00 2,9 1,6 2,8 2,3 2,2 6,1 23 12 30 16 SW 1024,7 20 2 0,0
18.01.2021 10:00:00 2,7 1,5 2,4 2,1 2,1 6,1 23 12 32 18 SW 1024,6 18 0 0,0
18.01.2021 09:00:00 2,8 1,6 2,4 2,1 2,1 6,1 23 12 33 18 SW 1024,5 12 0 0,0
18.01.2021 08:00:00 3,1 2,1 2,6 2,0 2,1 6,1 14 7 25 13 WSW 1024,6 11 0 0,0
18.01.2021 07:00:00 2,9 2,0 2,4 2,0 2,0 6,1 18 10 31 17 WSW 1024,6 9 0 0,0
18.01.2021 06:00:00 2,9 1,9 2,5 1,9 2,0 6,1 19 11 27 15 W 1024,4 9 0 0,0
18.01.2021 05:00:00 2,9 1,7 2,1 1,8 2,0 6,1 17 9 25 13 WSW 1024,6 15 0 0,0
18.01.2021 04:00:00 2,7 1,9 2,0 1,8 2,0 6,1 15 8 23 12 WSW 1024,7 9 0 0,0
18.01.2021 03:00:00 2,6 1,6 1,6 1,9 1,9 6,1 16 9 27 14 WSW 1024,8 13 0 0,1
18.01.2021 02:00:00 2,7 1,7 2,1 1,9 1,9 6,1 19 10 25 14 W 1024,9 18 0 0,0
18.01.2021 01:00:00 2,7 1,9 2,1 2,0 1,8 6,1 18 10 25 13 W 1025,0 8 0 0,0
18.01.2021 00:00:00 3,1 2,5 2,7 2,0 1,7 6,1 20 11 27 15 W 1024,9 5 0 0,1
17.01.2021 23:00:00 3,1 2,4 2,6 1,9 1,7 6,1 19 10 31 17 W 1024,5 7 0 0,0
17.01.2021 22:00:00 3,3 2,6 2,9 1,8 1,6 6,1 23 12 34 18 W 1024,1 7 0 0,0
17.01.2021 21:00:00 3,4 2,7 2,9 1,6 1,5 6,1 22 12 29 16 W 1023,9 8 0 0,1
17.01.2021 20:00:00 3,3 2,5 2,8 1,3 1,5 6,1 17 9 28 15 W 1023,6 4,7 0 0,4
17.01.2021 19:00:00 3,4 2,4 2,7 0,8 1,4 6,1 18 10 26 14 W 1023,1 22 0 0,0
17.01.2021 18:00:00 3,5 2,6 2,6 0,5 1,4 6,1 16 9 28 15 W 1022,6 23 0 0,0
17.01.2021 17:00:00 3,9 3,1 2,9 0,4 1,4 6,1 18 10 29 16 W 1021,7 15 0 0,0
17.01.2021 16:00:00 4,0 3,4 3,0 0,3 1,4 6,1 13 7 24 13 WNW 1021,0 13 0 0,0
17.01.2021 15:00:00 4,0 3,5 3,1 0,3 1,4 6,1 17 9 26 14 W 1020,2 11 0 0,2
17.01.2021 14:00:00 3,6 3,4 2,9 0,3 1,4 6,1 21 11 31 17 W 1019,8 6 0 0,0
17.01.2021 13:00:00 2,9 2,7 2,0 0,4 1,4 6,1 19 10 25 14 W 1019,6 0,4 0 0,0
17.01.2021 12:00:00 2,4 2,0 1,5 0,4 1,5 6,1 19 10 26 14 W 1019,2 0,2 0 0,0
17.01.2021 11:00:00 1,9 1,5 1,3 0,4 1,5 6,1 16 9 23 12 W 1018,6 0,1 0 0,0
17.01.2021 10:00:00 1,3 1,0 0,7 0,4 1,5 6,1 13 7 21 11 W 1018,0 0,1 0 0,0
17.01.2021 09:00:00 0,9 0,6 0,4 0,4 1,5 6,1 14 7 24 13 WSW 1017,1 0,2 0 1,0
17.01.2021 08:00:00 0,4 0,0 0,0 0,4 1,5 6,2 15 8 22 12 SW 1016,3 0,9 0 0,4
17.01.2021 07:00:00 0,1 -0,5 -0,1 0,4 1,5 6,2 17 9 22 12 SW 1016,1 3,0 0 0,0
17.01.2021 06:00:00 -0,4 -1,2 -0,5 0,4 1,5 6,2 18 10 23 12 SW 1016,1 6 0 0,0
17.01.2021 05:00:00 -0,5 -1,3 -0,7 0,4 1,5 6,2 17 9 23 12 SSW 1016,0 8 0 0,0
17.01.2021 04:00:00 -0,9 -1,6 -1,0 0,4 1,5 6,2 15 8 27 15 SW 1016,2 3,0 0 0,0
17.01.2021 03:00:00 -0,9 -2,3 -1,0 0,4 1,5 6,2 21 11 27 15 SW 1016,3 3,0 0 0,0
17.01.2021 02:00:00 -0,9 -2,5 -1,2 0,4 1,5 6,2 22 12 28 15 SW 1016,3 19 0 0,0
17.01.2021 01:00:00 -1,2 -2,6 -1,4 0,4 1,5 6,2 19 11 32 18 SW 1016,6 13 0 0,0
17.01.2021 00:00:00 -1,5 -3,0 -1,7 0,4 1,5 6,2 22 12 34 19 SW 1017,4 3,8 0 0,1
16.01.2021 23:00:00 -1,3 -3,5 -1,7 0,4 1,5 6,2 21 11 34 19 SSW 1017,6 3,6 0 0,2
16.01.2021 22:00:00 -1,4 -3,9 -1,8 0,4 1,5 6,2 17 9 34 18 SSW 1017,8 6 0 0,1
16.01.2021 21:00:00 -1,6 -3,2 -1,6 0,4 1,5 6,2 12 6 24 13 S 1018,4 2,0 0 0,4
16.01.2021 20:00:00 -1,4 -3,0 -1,5 0,4 1,5 6,2 14 8 26 14 SSW 1019,0 3,3 0 0,3
16.01.2021 19:00:00 -1,4 -3,0 -1,4 0,4 1,5 6,2 13 7 20 11 S 1019,2 2,5 0 0,2
16.01.2021 18:00:00 -0,8 -4,4 -1,1 0,4 1,5 6,2 13 7 27 15 S 1019,9 7 0 0,0
16.01.2021 17:00:00 -0,5 -5,5 -0,8 0,4 1,5 6,2 17 9 29 16 S 1021,1 42 0 0,0
16.01.2021 16:00:00 -0,4 -5,8 -0,7 0,4 1,5 6,2 18 10 27 15 S 1022,5 44 0 0,0
16.01.2021 15:00:00 -0,2 -5,8 -0,3 0,4 1,5 6,2 14 8 28 15 S 1023,2 44 0 0,0
16.01.2021 14:00:00 0,0 -5,8 -0,1 0,4 1,5 6,2 22 12 29 16 SSW 1024,5 42 0 0,0
16.01.2021 13:00:00 0,1 -4,8 0,1 0,4 1,5 6,2 18 10 25 14 SSW 1025,7 36 0 0,0
16.01.2021 12:00:00 -0,1 -4,2 0,0 0,4 1,5 6,2 12 7 19 10 SSW 1026,7 32 0 0,0
16.01.2021 11:00:00 -0,1 -3,7 -0,2 0,4 1,5 6,2 10 6 16 9 SSW 1027,2 24 0 0,0
16.01.2021 10:00:00 -0,4 -3,6 -0,5 0,3 1,5 6,2 11 6 17 9 SSW 1027,5 24 0 0,0
16.01.2021 09:00:00 -0,7 -2,9 -1,1 0,3 1,6 6,2 13 7 19 10 SSW 1027,9 19 0 0,0
16.01.2021 08:00:00 -0,8 -2,7 -1,2 0,4 1,6 6,2 15 8 19 10 SW 1028,2 16 0 0,0
16.01.2021 07:00:00 -1,0 -2,9 -1,3 0,4 1,6 6,2 9 5 11 6 SSW 1028,6 13 0 0,0
16.01.2021 06:00:00 -1,1 -2,5 -1,6 0,4 1,6 6,2 3 2 12 7 SW 1029,3 11 0 0,0
16.01.2021 05:00:00 -1,0 -2,7 -1,4 0,4 1,6 6,2 9 5 11 6 SW 1029,8 14 0 0,0
16.01.2021 04:00:00 -0,9 -2,5 -1,3 0,4 1,6 6,2 6 3 10 6 SSW 1030,0 13 0 0,0
16.01.2021 03:00:00 -1,0 -2,5 -1,5 0,4 1,6 6,2 6 4 9 5 SW 1030,3 11 0 0,0
16.01.2021 02:00:00 -1,0 -2,2 -1,5 0,4 1,6 6,2 3 2 6 3 SSW 1030,5 12 0 0,0
16.01.2021 01:00:00 -1,0 -2,1 -1,5 0,4 1,6 6,2 4 2 9 5 WSW 1030,7 10 0 0,0
16.01.2021 00:00:00 -0,9 -2,8 -1,6 0,4 1,6 6,2 4 2 7 4 NNW 1031,1 16 0 0,0
15.01.2021 23:00:00 -0,9 -2,3 -1,5 0,4 1,6 6,2 6 3 10 5 NW 1031,1 12 0 0,0
15.01.2021 22:00:00 -0,8 -2,3 -1,3 0,4 1,6 6,2 7 4 11 6 NNW 1031,0 13 0 0,0
15.01.2021 21:00:00 -0,9 -2,4 -1,4 0,4 1,6 6,2 7 4 9 5 WNW 1030,8 11 0 0,0
15.01.2021 20:00:00 -0,7 -2,6 -1,3 0,4 1,7 6,2 6 3 11 6 NW 1030,7 14 0 0,0
15.01.2021 19:00:00 -0,7 -2,8 -1,3 0,4 1,7 6,2 3 2 11 6 WNW 1030,4 15 0 0,0
15.01.2021 18:00:00 -0,5 -2,5 -1,0 0,4 1,7 6,2 6 3 10 5 NNW 1029,8 18 0 0,0
15.01.2021 17:00:00 -0,4 -2,3 -0,7 0,4 1,7 6,2 8 5 19 10 N 1029,7 11 0 0,0
15.01.2021 16:00:00 -0,2 -1,9 -0,4 0,4 1,7 6,2 7 4 9 5 NNW 1029,5 9 0 0,0
15.01.2021 15:00:00 -0,2 -2,4 -0,1 0,4 1,7 6,2 6 3 11 6 N 1029,0 11 0 0,0
15.01.2021 14:00:00 -0,4 -2,0 -0,2 0,4 1,7 6,3 8 4 18 10 N 1029,0 8 0 0,0
15.01.2021 13:00:00 -0,6 -1,9 -0,3 0,4 1,7 6,3 14 7 18 10 NNE 1029,0 7 0 0,0
15.01.2021 12:00:00 -0,8 -1,8 -0,6 0,4 1,8 6,3 11 6 20 11 N 1028,8 3,8 0 0,0
15.01.2021 11:00:00 -0,9 -2,3 -0,8 0,4 1,8 6,3 13 7 18 10 N 1028,1 7 0 0,0
15.01.2021 10:00:00 -0,9 -2,8 -1,0 0,4 1,8 6,3 12 7 18 10 NNE 1027,3 12 0 0,0
15.01.2021 09:00:00 -1,2 -3,4 -1,4 0,4 1,8 6,3 10 6 16 9 N 1026,3 20 0 0,0
15.01.2021 08:00:00 -1,1 -3,5 -1,4 0,4 1,8 6,3 10 5 21 11 NNE 1025,5 24 0 0,0
15.01.2021 07:00:00 -1,2 -3,9 -1,5 0,4 1,9 6,3 15 8 23 12 NNE 1024,7 26 0 0,0
15.01.2021 06:00:00 -1,4 -3,8 -1,8 0,4 1,9 6,3 14 8 22 12 NNE 1024,2 26 0 0,0
15.01.2021 05:00:00 -1,9 -4,6 -2,4 0,5 1,9 6,3 12 7 19 10 NNE 1023,7 36 0 0,0
15.01.2021 04:00:00 -1,8 -4,7 -3,2 0,5 2,0 6,3 12 6 22 12 NE 1022,9 49 0 0,0
15.01.2021 03:00:00 -1,6 -4,4 -2,7 0,5 2,0 6,3 18 10 29 16 ENE 1022,1 44 0 0,0
15.01.2021 02:00:00 -1,3 -4,3 -2,2 0,6 2,0 6,3 23 12 36 19 ENE 1021,2 39 0 0,0
15.01.2021 01:00:00 -0,8 -4,1 -1,7 0,6 2,1 6,3 27 14 37 20 E 1020,6 48 0 0,0
15.01.2021 00:00:00 -0,7 -3,9 -1,5 0,7 2,1 6,3 25 13 37 20 E 1020,1 48 0 0,0
14.01.2021 23:00:00 -0,6 -3,4 -1,5 0,7 2,1 6,3 23 12 34 19 E 1019,8 48 0 0,0
14.01.2021 22:00:00 -0,4 -3,1 -1,1 0,8 2,2 6,3 24 13 31 17 E 1019,1 44 0 0,0
14.01.2021 21:00:00 -0,2 -2,8 -0,9 0,7 2,2 6,3 24 13 32 17 E 1018,7 44 0 0,0
14.01.2021 20:00:00 0,0 -2,8 -0,9 0,8 2,3 6,3 20 11 30 16 E 1018,1 41 0 0,0
14.01.2021 19:00:00 0,3 -2,4 -0,3 1,1 2,3 6,3 20 11 34 18 E 1018,1 40 0 0,0
14.01.2021 18:00:00 0,5 -2,1 -0,1 1,4 2,3 6,3 21 12 29 16 E 1018,1 33 0 0,0
14.01.2021 17:00:00 0,7 -1,9 0,1 1,7 2,2 6,3 19 10 26 14 E 1018,1 36 0 0,0
14.01.2021 16:00:00 1,1 -1,5 1,0 2,0 2,2 6,3 16 9 21 11 E 1018,0 36 0 0,0
14.01.2021 15:00:00 1,2 -2,0 1,3 1,9 2,2 6,3 16 9 25 13 ESE 1018,1 37 1 0,0
14.01.2021 14:00:00 0,9 -2,0 0,9 1,6 2,2 6,3 19 10 31 17 ESE 1018,8 35 0 0,0
14.01.2021 13:00:00 0,7 -1,8 0,2 1,3 2,2 6,3 19 10 25 14 E 1019,6 34 0 0,0
14.01.2021 12:00:00 0,5 -1,9 -0,1 1,1 2,2 6,3 14 8 18 10 E 1019,8 33 0 0,0
14.01.2021 11:00:00 0,4 -1,9 -0,2 1,1 2,2 6,3 11 6 14 8 E 1020,3 35 0 0,0
14.01.2021 10:00:00 0,3 -1,3 -0,3 1,1 2,2 6,3 9 5 12 7 E 1020,0 34 0 0,0
14.01.2021 09:00:00 0,2 -0,7 -0,3 1,0 2,3 6,3 6 3 9 5 E 1019,6 16 0 0,0
14.01.2021 08:00:00 0,3 -1,0 -0,7 1,1 2,3 6,3 4 2 6 4 ENE 1019,4 28 0 0,0
14.01.2021 07:00:00 0,3 -0,7 -0,7 1,1 2,3 6,3 0 0 5 3 N 1019,0 26 0 0,0
14.01.2021 06:00:00 0,2 -0,5 -0,1 1,2 2,4 6,3 3 2 7 4 E 1018,5 24 0 0,0
14.01.2021 05:00:00 0,1 -0,2 -0,1 1,3 2,4 6,3 8 5 18 10 NNE 1018,8 8 0 0,6
14.01.2021 04:00:00 0,3 -0,5 0,0 1,7 2,4 6,3 9 5 22 12 N 1018,5 2,5 0 1,4
14.01.2021 03:00:00 2,3 1,8 1,9 2,0 2,3 6,3 11 6 29 16 NNW 1017,5 7 0 0,1
14.01.2021 02:00:00 2,5 1,4 2,1 1,9 2,3 6,3 17 9 26 14 NW 1017,2 4,5 0 0,1
14.01.2021 01:00:00 2,5 1,1 2,1 1,8 2,3 6,3 19 10 31 17 W 1017,1 11 0 0,0
14.01.2021 00:00:00 2,3 1,2 1,9 1,7 2,3 6,3 16 9 26 14 W 1016,8 7 0 0,0
13.01.2021 23:00:00 2,3 1,2 1,7 1,7 2,3 6,3 20 11 26 14 W 1016,3 7 0 0,0
13.01.2021 22:00:00 2,3 1,3 1,8 1,6 2,3 6,3 17 9 24 13 W 1016,2 6 0 0,0
13.01.2021 21:00:00 2,2 1,3 1,5 1,6 2,3 6,3 16 8 22 12 W 1016,0 6 0 0,0
13.01.2021 20:00:00 2,2 1,1 1,5 1,6 2,3 6,3 18 10 26 14 W 1015,5 7 0 0,0
13.01.2021 19:00:00 2,3 0,8 1,4 1,8 2,3 6,3 19 11 35 19 W 1015,5 12 0 0,0
13.01.2021 18:00:00 2,6 0,7 1,8 1,9 2,3 6,3 21 12 32 18 W 1015,3 19 0 0,0
13.01.2021 17:00:00 2,8 0,5 1,9 2,2 2,2 6,3 23 12 35 19 W 1015,6 29 0 0,0
13.01.2021 16:00:00 3,2 0,1 2,8 2,4 2,2 6,3 26 14 41 22 W 1015,6 39 8 0,0
13.01.2021 15:00:00 3,6 0,0 4,0 2,3 2,1 6,3 29 16 45 24 WSW 1015,9 47 45 0,0
13.01.2021 14:00:00 3,4 0,6 4,1 1,7 2,1 6,3 28 15 42 23 W 1016,5 43 20 0,0
13.01.2021 13:00:00 3,0 -0,1 3,9 1,2 2,1 6,3 32 17 53 29 WSW 1017,3 33 35 0,0
13.01.2021 12:00:00 2,4 -0,2 2,1 1,0 2,1 6,3 29 15 42 23 WSW 1018,0 35 17 0,0
13.01.2021 11:00:00 1,7 0,1 1,1 0,8 2,1 6,3 23 13 32 18 WSW 1018,6 19 0 0,0
13.01.2021 10:00:00 1,3 0,1 0,6 0,8 2,2 6,3 21 11 35 19 WSW 1018,7 13 0 0,0
13.01.2021 09:00:00 1,1 -0,2 0,1 0,8 2,2 6,3 22 12 33 18 WSW 1018,8 17 0 0,0
13.01.2021 08:00:00 0,9 -0,1 0,0 0,8 2,3 6,3 21 11 30 16 W 1018,7 17 0 0,0
13.01.2021 07:00:00 0,6 -0,2 -0,1 0,8 2,3 6,3 21 11 27 15 WSW 1018,8 8 0 0,0

tt = temperature
td = dewpoint
tt 5cm = temperature 5cm
tt -5cm = temperature -5cm
tt -20cm = temperature -20cm
tt -100cm = temperature -100cm
ff = wind speed
fx = gusts
dd = wind direction
ppp = reduced air pressure
vv = visibility
sd = sunshine duration
rr = precipitation

Next stations